Location: Aldenham
(51.6667°N, 0.3500°W)
Time: 09:11:19
(UTC+00:00)

A-11 Canister half - All Passes

Search period start: 16 February 2026 00:00
Search period end: 26 February 2026 00:00
Orbit: 1512 x 1687 km, 47.2° (Epoch: 15 February)

Date Brightness Start Highest point End Pass type
(mag) Time Alt. Az. Time Alt. Az. Time Alt. Az.
16 Feb - 01:45:45 10° W 01:55:28 62° SSW 02:04:49 10° ESE visible
16 Feb - 03:50:49 10° W 03:59:12 34° SW 04:07:18 10° SSE visible
16 Feb - 19:15:31 10° SSE 19:20:54 16° SE 19:26:14 10° E visible
16 Feb - 21:14:34 10° SSW 21:23:50 42° SSE 21:32:52 10° E visible
16 Feb - 23:17:59 10° WSW 23:27:56 67° S 23:37:34 10° E visible
17 Feb - 01:22:40 10° W 01:32:27 63° SSW 01:41:51 10° ESE visible
17 Feb - 03:27:43 10° W 03:36:14 36° SW 03:44:30 10° SSE visible
17 Feb - 05:37:07 10° WSW 05:38:40 10° WSW 05:40:11 10° SW visible
17 Feb - 18:53:06 10° SSE 18:57:59 15° SE 19:02:50 10° E visible
17 Feb - 20:51:39 10° SSW 21:00:50 41° SE 21:09:49 10° E visible
17 Feb - 22:54:56 10° WSW 23:04:54 66° S 23:14:33 10° E visible
18 Feb - 00:59:35 10° W 01:09:25 64° SSW 01:18:52 10° ESE visible
18 Feb - 03:04:35 10° W 03:13:16 37° SW 03:21:41 10° SSE visible
18 Feb - 05:12:53 10° WSW 05:15:47 12° WSW 05:18:40 10° SW visible
18 Feb - 18:30:46 10° SSE 18:35:04 13° SE 18:39:21 10° E visible
18 Feb - 20:28:44 10° SSW 20:37:50 39° SE 20:46:45 10° E visible
18 Feb - 22:31:53 10° WSW 22:41:51 65° SSE 22:51:31 10° E visible
19 Feb - 00:36:31 10° W 00:46:23 65° SSW 00:55:53 10° ESE night (unlit)
19 Feb - 02:41:29 10° W 02:50:18 39° SW 02:58:50 10° SSE visible
19 Feb - 04:49:07 10° W 04:52:54 13° WSW 04:56:38 10° SSW visible
19 Feb - 18:08:36 10° SE 18:12:10 12° ESE 18:15:43 10° ESE visible
19 Feb - 20:05:51 10° SSW 20:14:50 38° SE 20:23:41 10° E visible
19 Feb - 22:08:50 10° WSW 22:18:48 64° SSE 22:28:30 10° E visible
20 Feb - 00:13:26 10° W 00:23:20 66° S 00:32:54 10° ESE visible
20 Feb - 02:18:22 10° W 02:27:20 41° SW 02:35:59 10° SSE visible
20 Feb - 04:25:32 10° W 04:30:01 14° SW 04:34:25 10° SSW visible
20 Feb - 17:46:40 10° SE 17:49:16 11° ESE 17:51:50 10° ESE daylight
20 Feb - 19:42:59 10° SSW 19:51:50 36° SE 20:00:36 10° E visible
20 Feb - 21:45:48 10° WSW 21:55:46 63° SSE 22:05:28 10° E visible
20 Feb - 23:50:21 10° W 00:00:18 67° S 00:09:53 10° ESE visible
21 Feb - 01:55:16 10° W 02:04:21 42° SSW 02:13:07 10° SSE night (unlit)
21 Feb - 04:02:05 10° W 04:07:07 15° SW 04:12:04 10° SSW visible
21 Feb - 17:25:52 10° ESE 17:26:22 10° ESE 17:26:52 10° ESE daylight
21 Feb - 19:20:06 10° SSW 19:28:52 34° SE 19:37:30 10° E visible
21 Feb - 21:22:46 10° WSW 21:32:43 62° SSE 21:42:25 10° E visible
21 Feb - 23:27:16 10° W 23:37:15 68° S 23:46:54 10° ESE visible
22 Feb - 01:32:10 10° W 01:41:22 44° SSW 01:50:15 10° SE night (unlit)
22 Feb - 03:38:41 10° W 03:44:13 17° SW 03:49:39 10° SSW visible
22 Feb - 18:57:16 10° SSW 19:05:53 33° SE 19:14:25 10° E visible
22 Feb - 20:59:44 10° WSW 21:09:40 61° SSE 21:19:23 10° E visible
22 Feb - 23:04:11 10° W 23:14:12 68° S 23:23:53 10° ESE visible
23 Feb - 01:09:04 10° W 01:18:23 46° SSW 01:27:22 10° SE night (unlit)
23 Feb - 03:15:21 10° W 03:21:19 18° SW 03:27:09 10° SSW night (unlit)
23 Feb - 18:34:26 10° SSW 18:42:54 31° SE 18:51:18 10° E visible
23 Feb - 20:36:44 10° WSW 20:46:38 60° SSE 20:56:20 10° E visible
23 Feb - 22:41:07 10° W 22:51:09 69° S 23:00:53 10° ESE visible
24 Feb - 00:45:59 10° W 00:55:22 48° SSW 01:04:27 10° SE visible
24 Feb - 02:52:04 10° W 02:58:24 20° SW 03:04:37 10° S night (unlit)
24 Feb - 18:11:37 10° SSW 18:19:56 30° SE 18:28:10 10° E visible
24 Feb - 20:13:42 10° SW 20:23:35 58° SSE 20:33:19 10° E visible
24 Feb - 22:18:02 10° W 22:28:06 69° S 22:37:51 10° ESE visible
25 Feb - 00:22:53 10° W 00:32:23 49° SSW 00:41:32 10° SE visible
25 Feb - 02:28:48 10° W 02:35:29 21° SW 02:42:02 10° S night (unlit)
25 Feb - 17:48:50 10° S 17:56:58 28° SE 18:05:03 10° E visible
25 Feb - 19:50:42 10° SW 20:00:33 57° SSE 20:10:15 10° E visible
25 Feb - 21:54:58 10° W 22:05:02 70° S 22:14:51 10° ESE visible
